Trapani, Italy

5:26 AM CEST on May 28, 2017 (GMT +0200)
Birgi Mil

Weather History for LICT - February, 2013

Change the Weather History Date:

Sunday, February 3, 2013

  Actual Average Record
Temperature  
Mean Temperature 52 °F -  
Max Temperature 56 °F 60 °F 66 °F (2017)
Min Temperature 48 °F 46 °F 37 °F (1999)
Degree Days  
Heating Degree Days 13    
Growing Degree Days 2 (Base 50)    
Moisture  
Dew Point 44 °F    
Average Humidity 73    
Maximum Humidity 93    
Minimum Humidity 55    
Precipitation  
Precipitation 0.00 in 0.06 in - ()
Sea Level Pressure  
Sea Level Pressure 29.75 in    
Wind  
Wind Speed 17 mph ()    
Max Wind Speed 23 mph    
Max Gust Speed 30 mph    
Visibility 6.5 miles    
Events Rain    
Averages and records for this station are not official NWS values.
T = Trace of Precipitation, MM = Missing Value Source: Averaged Metar Reports

Daily Weather History Graph

Daily Weather History Graph

Search for Another Location

Airport or City:

Trip Planner

Search our weather history database for the weather conditions in past years. The results will help you decide how hot, cold, wet, or windy it might be!

Date:

Astronomy

Feb. 03, 2013 Rise Set
Actual Time 7:12 AM CET 5:35 PM CET
Civil Twilight 6:44 AM CET 6:03 PM CET
Nautical Twilight 6:13 AM CET 6:34 PM CET
Astronomical Twilight 5:42 AM CET 7:05 PM CET
Moon 12:20 AM CET (2/3) 11:01 AM CET (2/3)
Length of Visible Light 11h 18m
Length of Day
10h 23m
Waning Gibbous, 51% of the Moon is Illuminated
Feb 3
Waning Gibbous
Feb 3
Last Quarter
Feb 10
New
Feb 17
First Quarter
Feb 25
Full

Hourly Weather History & Observations

Time (CET) Temp. Dew Point Humidity Pressure Visibility Wind Dir Wind Speed Gust Speed Precip Events Conditions
12:55 AM 51.8 °F 42.8 °F 71% 29.59 in 6.2 mi West 20.7 mph - N/A   Scattered Clouds
1:00 AM 52 °F 42 °F 59% 29.62 in 7 mi West 20.7 mph - -   Partly Cloudy
1:55 AM 53.6 °F 42.8 °F 67% 29.62 in 6.2 mi West 23.0 mph - N/A   Scattered Clouds
2:55 AM 53.6 °F 42.8 °F 67% 29.62 in 6.2 mi West 21.9 mph - N/A   Scattered Clouds
3:55 AM 51.8 °F 44.6 °F 76% 29.62 in 6.2 mi West 18.4 mph - N/A   Scattered Clouds
4:55 AM 51.8 °F 44.6 °F 76% 29.62 in 6.2 mi West 17.3 mph - N/A   Scattered Clouds
5:55 AM 51.8 °F 44.6 °F 76% 29.62 in 6.2 mi WSW 23.0 mph - N/A   Scattered Clouds
6:55 AM 51.8 °F 44.6 °F 76% 29.62 in 6.2 mi West 17.3 mph - N/A   Scattered Clouds
7:00 AM 52 °F 44 °F 66% 29.65 in 7 mi West 17.3 mph - - Rain Light Rain
7:55 AM 51.8 °F 42.8 °F 71% 29.68 in 6.2 mi West 20.7 mph - N/A   Scattered Clouds
8:55 AM 53.6 °F 44.6 °F 72% 29.71 in 6.2 mi West 23.0 mph - N/A   Scattered Clouds
9:55 AM 53.6 °F 42.8 °F 67% 29.71 in 6.2 mi WSW 17.3 mph - N/A   Scattered Clouds
10:16 AM 53.6 °F 44.6 °F 72% 29.74 in 6.2 mi West 18.4 mph 29.9 mph N/A   Scattered Clouds
10:55 AM 53.6 °F 46.4 °F 77% 29.74 in 6.2 mi WSW 23.0 mph - N/A   Scattered Clouds
11:55 AM 55.4 °F 44.6 °F 67% 29.77 in 6.2 mi West 23.0 mph - N/A   Scattered Clouds
12:55 PM 55.4 °F 42.8 °F 63% 29.77 in 6.2 mi West 19.6 mph - N/A   Scattered Clouds
1:00 PM 55 °F 44 °F 55% 29.78 in 12 mi West 19.6 mph - -   Partly Cloudy
1:55 PM 53.6 °F 44.6 °F 72% 29.77 in 6.2 mi WSW 20.7 mph - N/A   Scattered Clouds
2:55 PM 51.8 °F 44.6 °F 76% 29.77 in 6.2 mi WSW 23.0 mph - N/A Rain Rain
3:55 PM 55.4 °F 44.6 °F 67% 29.80 in 6.2 mi West 21.9 mph - N/A   Scattered Clouds
4:55 PM 53.6 °F 44.6 °F 72% 29.83 in 6.2 mi West 17.3 mph - N/A   Scattered Clouds
5:55 PM 50.0 °F 46.4 °F 87% 29.86 in 6.2 mi West 9.2 mph - N/A Rain Rain
6:55 PM 50.0 °F 42.8 °F 76% 29.86 in 6.2 mi WSW 12.7 mph - N/A   Scattered Clouds
7:00 PM 51 °F 43 °F 65% 29.86 in 7 mi WSW 12.7 mph - - Rain Light Rain
7:55 PM 50.0 °F 44.6 °F 82% 29.86 in 6.2 mi West 13.8 mph - N/A   Scattered Clouds
8:55 PM 48.2 °F 46.4 °F 93% 29.89 in 6.2 mi WSW 3.5 mph - N/A   Scattered Clouds
9:55 PM 50.0 °F 46.4 °F 87% 29.89 in 6.2 mi West 12.7 mph - N/A   Scattered Clouds
10:55 PM 50.0 °F 46.4 °F 87% 29.89 in 6.2 mi West 10.4 mph - N/A   Scattered Clouds
11:55 PM 50.0 °F 46.4 °F 87% 29.89 in 6.2 mi West 6.9 mph - N/A Rain Light Rain